Tracking 19854 objects as of 23-Sep-2019
HD Live streaming from Space Station
objects crossing your sky now

CAPE 1

Track CAPE 1 now!
10-day predictions
CAPE 1 is classified as:


NORAD ID: 31130
Int'l Code: 2007-012P
Perigee: 643.5 km
Apogee: 780.1 km
Inclination: 98.2 °
Period: 98.9 minutes
Semi major axis: 7082 km
RCS: 0.0406 m2 (small)
Launch date: April 17, 2007
Source: United States (US)
Launch site: TYURATAM MISSILE AND SPACE COMPLEX (TTMTR)

Uplink (MHz):
Downlink (MHz): 435.245
Beacon (MHz):
Mode: 1200bps AFSK
Call sign: K5USL
Status: Inactive

aabbcc
Your satellite tracking list
Your tracking list is empty




NASA's NSSDC Master Catalog

Two Line Element Set (TLE):
1 31130U 07012P   19264.37428334  .00000111  00000-0  33777-4 0  9998
2 31130  98.1677 202.5669 0096465 153.2455 207.3766 14.56446622659497
Source of the keplerian elements: AFSPC